Weather History for Charlottetown, P. E. I., Prince Edward Island

Change the Weather History Date:

Tuesday, April 1, 2014

  Actual Average Record
Temperature  
Mean Temperature 26 °F -  
Max Temperature 28 °F 43 °F - ()
Min Temperature 24 °F 29 °F - ()
Degree Days  
Heating Degree Days 39    
Moisture  
Dew Point 25 °F    
Average Humidity 93    
Maximum Humidity 100    
Minimum Humidity 81    
Precipitation  
Precipitation 0.47 in 0.12 in - ()
Sea Level Pressure  
Sea Level Pressure 29.93 in    
Wind  
Wind Speed 27 mph ()    
Max Wind Speed 34 mph    
Max Gust Speed 46 mph    
Visibility 2.4 miles    
Events Snow    
T = Trace of Precipitation, MM = Missing Value Source: Averaged Metar Reports

Daily Weather History Graph

Daily Weather History Graph

Search for Another Location

Airport:

Trip Planner

Search our weather history database for the weather conditions in past years. The results will help you decide how hot, cold, wet, or windy it might be!

Date:

Astronomy

Apr. 01, 2014 Rise Set
Actual Time 6:52 AM ADT 7:41 PM ADT
Civil Twilight 6:21 AM ADT 8:11 PM ADT
Nautical Twilight 5:45 AM ADT 8:48 PM ADT
Astronomical Twilight 5:07 AM ADT 9:26 PM ADT
Moon 7:45 AM ADT (4/1) 10:07 PM ADT (4/1)
Length of Visible Light 13h 49m
Length of Day
12h 48m
Waxing Crescent, 4% of the Moon is Illuminated
Apr 1
Waxing Crescent
Apr 7
First Quarter
Apr 15
Full
Apr 22
Last Quarter
Apr 29
New

Hourly Weather History & Observations

Time (ADT) Temp. Windchill Dew Point Humidity Pressure Visibility Wind Dir Wind Speed Gust Speed Precip Events Conditions
12:00 AM 26.6 °F 9.8 °F 26.6 °F 100% 29.89 in 1.5 mi NNE 32.2 mph 46.0 mph N/A Snow Light Freezing Drizzle
1:00 AM 26.6 °F 9.8 °F 26.6 °F 100% 29.89 in 0.6 mi NNE 32.2 mph 46.0 mph N/A Snow Light Ice Pellets
1:33 AM 26.6 °F 9.8 °F 26.6 °F 100% 29.88 in 0.2 mi NNE 32.2 mph 42.6 mph N/A Snow Light Snow
2:00 AM 26.6 °F 9.8 °F 26.6 °F 100% 29.88 in 0.4 mi NNE 32.2 mph 43.7 mph N/A Snow Light Snow
3:00 AM 27 °F - 26 °F 93% 29.88 in 0 mi NNE 31.1 mph - -   Ice Pellets
3:00 AM 26.6 °F 10.8 °F 26.6 °F 100% 29.88 in 0.4 mi NNE 27.6 mph 41.4 mph N/A Snow Snow
4:00 AM 26.6 °F 9.6 °F 26.6 °F 100% 29.86 in 0.4 mi NNE 33.4 mph 42.6 mph N/A Snow Snow
4:12 AM 26.6 °F 9.8 °F 24.8 °F 93% 29.86 in 0.2 mi NNE 32.2 mph 46.0 mph N/A Snow Heavy Snow
4:25 AM 26.6 °F 10.8 °F 24.8 °F 93% 29.86 in 0.2 mi NNE 27.6 mph 44.9 mph N/A Snow Heavy Snow
5:00 AM 26.6 °F 9.3 °F 24.8 °F 93% 29.85 in 0.2 mi NNE 34.5 mph 43.7 mph N/A Snow Heavy Snow
6:00 AM 26.6 °F 9.3 °F 24.8 °F 93% 29.86 in 0.2 mi NNE 34.5 mph 46.0 mph N/A Snow Snow
6:48 AM 26.6 °F 9.3 °F 24.8 °F 93% 29.88 in 0.6 mi NNE 34.5 mph 44.9 mph N/A Snow Light Snow
7:00 AM 26.6 °F 10.3 °F 24.8 °F 93% 29.88 in 0.6 mi NNE 29.9 mph 44.9 mph N/A Snow Light Snow
8:00 AM 26.6 °F 10.6 °F 24.8 °F 93% 29.88 in 0.6 mi NNE 28.8 mph 43.7 mph N/A Snow Light Snow
8:28 AM 26.6 °F 10.6 °F 24.8 °F 93% 29.90 in 3.0 mi NNE 28.8 mph 41.4 mph N/A Snow Light Snow
9:00 AM 26 °F - 25 °F 93% 29.91 in 1 mi NNE 28.8 mph - - Snow Light Snow
9:00 AM 26.6 °F 10.8 °F 24.8 °F 93% 29.91 in 0.8 mi NNE 27.6 mph 41.4 mph N/A Snow Light Snow
10:00 AM 26.6 °F 10.0 °F 24.8 °F 93% 29.92 in 0.8 mi NNE 31.1 mph 46.0 mph N/A Snow Light Snow
10:23 AM 26.6 °F 10.0 °F 24.8 °F 93% 29.93 in 0.6 mi NNE 31.1 mph 42.6 mph N/A Snow Light Snow
10:46 AM 26.6 °F 10.3 °F 24.8 °F 93% 29.94 in 0.5 mi NNE 29.9 mph 43.7 mph N/A Snow Light Snow
11:00 AM 26.6 °F 10.3 °F 24.8 °F 93% 29.95 in 0.4 mi NNE 29.9 mph 40.3 mph N/A Snow Snow
11:16 AM 24.8 °F 8.1 °F 24.8 °F 100% 29.95 in 0.2 mi NNE 28.8 mph 42.6 mph N/A Snow Snow
11:25 AM 26.6 °F 10.8 °F 24.8 °F 93% 29.95 in 0.8 mi NNE 27.6 mph 39.1 mph N/A Snow Light Snow
12:00 PM 26.6 °F 10.6 °F 24.8 °F 93% 29.96 in 0.6 mi NNE 28.8 mph 42.6 mph N/A Snow Light Snow
12:46 PM 26.6 °F 9.3 °F 24.8 °F 93% 29.96 in 0.5 mi NNE 34.5 mph 42.6 mph N/A Snow Light Snow
1:00 PM 26.6 °F 10.8 °F 24.8 °F 93% 29.96 in 0.4 mi NNE 27.6 mph 39.1 mph N/A Snow Snow
1:32 PM 26.6 °F 11.1 °F 24.8 °F 93% 29.96 in 0.5 mi NNE 26.5 mph 41.4 mph N/A Snow Light Snow
2:00 PM 26.6 °F 10.3 °F 24.8 °F 93% 29.96 in 0.5 mi North 29.9 mph 41.4 mph N/A Snow Light Snow
3:00 PM 26 °F - 24 °F 89% 29.97 in 0 mi NNE 28.8 mph - - Snow Light Snow
3:00 PM 26.6 °F 10.0 °F 24.8 °F 93% 29.96 in 0.5 mi NNE 31.1 mph 41.4 mph N/A Snow Light Snow
3:40 PM 26.6 °F 11.4 °F 24.8 °F 93% 29.96 in 0.8 mi NNE 25.3 mph 33.4 mph N/A Snow Light Snow
4:00 PM 26.6 °F 11.7 °F 24.8 °F 93% 29.96 in 0.8 mi NNE 24.2 mph 36.8 mph N/A Snow Light Snow
4:26 PM 26.6 °F 11.7 °F 24.8 °F 93% 29.96 in 1.5 mi North 24.2 mph 29.9 mph N/A Snow Light Snow
5:00 PM 26.6 °F 12.0 °F 23.0 °F 86% 29.96 in 1.5 mi NNE 23.0 mph 36.8 mph N/A Snow Light Snow
5:22 PM 26.6 °F 12.0 °F 23.0 °F 86% 29.97 in 2.5 mi North 23.0 mph 32.2 mph N/A Snow Light Snow
5:48 PM 26.6 °F 12.0 °F 24.8 °F 93% 29.97 in 1.5 mi NNE 23.0 mph 29.9 mph N/A Snow Light Snow Showers
6:00 PM 26.6 °F 12.0 °F 24.8 °F 93% 29.97 in 2.0 mi NNE 23.0 mph 32.2 mph N/A Snow Light Snow Showers
7:00 PM 26.6 °F 13.1 °F 24.8 °F 93% 29.99 in 5.0 mi North 19.6 mph 28.8 mph N/A Snow Light Snow
8:00 PM 26.6 °F 12.0 °F 24.8 °F 93% 29.99 in 10.0 mi NNE 23.0 mph 31.1 mph N/A Snow Light Snow
9:00 PM 28 °F - 24 °F 81% 30.00 in 15 mi North 21.9 mph - - Snow Light Snow
9:00 PM 26.6 °F 12.0 °F 24.8 °F 93% 30.00 in 15.0 mi North 23.0 mph 32.2 mph N/A Snow Light Snow
10:00 PM 28.4 °F 15.4 °F 24.8 °F 86% 30.01 in 15.0 mi North 19.6 mph 26.5 mph N/A Snow Low Drifting Snow
11:00 PM 26.6 °F 13.4 °F 24.8 °F 93% 30.00 in 15.0 mi North 18.4 mph 26.5 mph N/A Snow Low Drifting Snow